[[{"header":{"parameterUnit":"m.s-1","parameterCategory":1,"la1":30.2991,"la2":30.254,"lo1":-89.0895,"lo2":-89.0444,"dy":0.0017,"dx":0.0017,"nx":28,"ny":28,"refTime":"2025-12-14T03:00:00:Z","depth":0,"parameterNumber":2,"parameterNumberName":"U-component_of_WINDS"},"data":[0,0,0,0,0,0,0,0,0,0,0,0,0,0,0,0,0,0,0,0,0,0,0,0,0,0,0,0,0,0,0,0,0,0,0,0,0,0,0,0,0,0,0,0,0,0,0,0,0,0,0,0,0,0,0,0,0,0,-1.1351,-1.1351,0,-1.1347,-1.1347,-1.1347,-1.1308,-1.1307,-1.1306,-1.1305,-1.1302,-1.1303,-1.1304,0,0,0,0,0,0,0,0,0,0,0,0,0,-1.1328,-1.1329,-1.1351,-1.1351,-1.1351,-1.1347,-1.1347,-1.1347,-1.1308,-1.1307,-1.1306,-1.1305,-1.1302,-1.1303,-1.1304,0,0,0,0,0,0,0,0,0,0,0,0,0,-1.1333,-1.1329,-1.1351,-1.1331,-1.1329,-1.1347,-1.1347,-1.1347,-1.1308,-1.1307,-1.1306,-1.1304,-1.1302,-1.1303,-1.1304,-1.1341,0,0,-1.1308,-1.1308,0,0,0,0,0,0,0,0,-1.1332,-1.1333,-1.1334,-1.1333,-1.1331,-1.1326,-1.1338,-1.1345,-1.1309,-1.1316,-1.1305,-1.1304,-1.1312,-1.1312,-1.1314,-1.1341,-1.134,-1.1308,-1.1309,-1.1309,-1.131,0,0,0,0,0,0,0,-1.1332,-1.1333,-1.1349,-1.1334,-1.1332,-1.1323,-1.1322,-1.1339,-1.1322,-1.1316,-1.1313,-1.1313,-1.131,-1.1313,-1.1314,-1.134,-1.1308,-1.1309,-1.131,-1.131,-1.1398,-1.14,0,0,0,0,0,0,-1.1334,-1.1333,-1.135,-1.1349,-1.1328,-1.1325,-1.1324,-1.1329,-1.1322,-1.1319,-1.1314,-1.1311,-1.1312,-1.1313,-1.1314,-1.1357,-1.1309,-1.131,-1.1311,-1.1397,-1.1399,-1.1401,0,0,0,0,0,0,-1.1334,-1.1336,-1.135,-1.1341,-1.1342,-1.1327,-1.1333,-1.133,-1.1333,-1.1321,-1.1318,-1.132,-1.1311,-1.1312,-1.1335,-1.1356,-1.1311,-1.1312,-1.1395,-1.1397,-1.14,-1.1443,0,0,0,0,0,0,-1.1333,-1.1336,-1.1349,-1.1341,-1.1342,-1.137,-1.1335,-1.1331,-1.1335,-1.1331,-1.1325,-1.1323,-1.131,-1.1333,-1.1336,-1.1357,-1.1313,-1.1393,-1.1396,-1.1399,-1.1439,-1.1446,-1.1452,0,0,0,0,0,-1.1333,-1.1361,-1.135,-1.1352,-1.1358,-1.1371,-1.1372,-1.1355,-1.1337,-1.135,-1.1343,-1.1323,-1.1354,-1.1336,-1.1338,-1.136,-1.1391,-1.1395,-1.1399,-1.1436,-1.1445,-1.1452,0,0,0,0,0,0,-1.1372,-1.136,-1.1347,-1.1374,-1.1374,-1.1365,-1.1381,-1.1365,-1.137,-1.1366,-1.1346,-1.1346,-1.1371,-1.1368,-1.1348,-1.1396,-1.1369,-1.1374,-1.1397,-1.1405,-1.1412,-1.1411,-1.1314,0,0,0,0,0,-1.1384,-1.1395,-1.1384,-1.1409,-1.1409,-1.1395,-1.14,-1.1388,-1.1387,-1.1387,-1.1381,-1.1382,-1.1392,-1.1398,-1.1407,-1.1439,-1.1438,-1.1456,-1.1463,-1.1468,-1.1472,-1.149,-1.1498,-1.1412,-1.1412,-1.1412,0,0,-1.1408,-1.1403,-1.1411,-1.1416,-1.1415,-1.1428,-1.1395,-1.141,-1.1419,-1.1389,-1.141,-1.1407,-1.1406,-1.1434,-1.1446,-1.1432,-1.1496,-1.1473,-1.1477,-1.1478,-1.1495,-1.1503,-1.151,-1.1415,-1.1414,-1.1414,0,0,-1.1458,-1.1456,-1.1476,-1.1476,-1.1474,-1.1465,-1.1471,-1.1464,-1.146,-1.1481,-1.146,-1.1471,-1.1488,-1.1489,-1.1492,-1.1546,-1.1529,-1.155,-1.1583,-1.1601,-1.1608,-1.1614,-1.1633,-1.1641,-1.1553,-1.1554,-1.1554,0,-1.1489,-1.1506,-1.1489,-1.1505,-1.1509,-1.1483,-1.1505,-1.1505,-1.1507,-1.151,-1.1495,-1.1517,-1.1515,-1.1543,-1.1557,-1.156,-1.1566,-1.1549,-1.1608,-1.1614,-1.1619,-1.1638,-1.1645,-1.1556,-1.1556,-1.1556,-1.1555,0,-1.1544,-1.1557,-1.1574,-1.1576,-1.1582,-1.1601,-1.1587,-1.1595,-1.1584,-1.1577,-1.1599,-1.1596,-1.1604,-1.161,-1.1598,-1.1638,-1.1629,-1.1612,-1.1584,-1.163,-1.1647,-1.1654,-1.156,-1.1559,-1.1558,-1.1557,0,0,-1.1616,-1.1611,-1.1617,-1.1618,-1.1616,-1.1626,-1.1645,-1.1653,-1.166,-1.1663,-1.1679,-1.1695,-1.1679,-1.1682,-1.1671,-1.1687,-1.1731,-1.1667,-1.1667,-1.1679,-1.1775,-1.1788,-1.1796,-1.172,-1.1721,-1.1722,-1.1775,0,-1.1665,-1.1695,-1.1682,-1.1714,-1.1726,-1.1704,-1.172,-1.1721,-1.1716,-1.1726,-1.1721,-1.1733,-1.1711,-1.1713,-1.1728,-1.1722,-1.175,-1.1719,-1.1735,-1.1736,-1.1735,-1.1805,-1.1818,-1.1868,-1.1782,-1.1783,-1.1784,0,-1.1725,-1.173,-1.1764,-1.1761,-1.1766,-1.1781,-1.1788,-1.1798,-1.1799,-1.1795,-1.18,-1.1785,-1.1805,-1.1778,-1.1805,-1.1785,-1.1791,-1.179,-1.1791,-1.1791,-1.1762,-1.1807,-1.1883,-1.189,-1.1794,-1.1793,-1.1792,0,-1.1774,-1.1791,-1.1813,-1.1815,-1.1812,-1.1823,-1.1823,-1.1823,-1.1829,-1.1836,-1.184,-1.1849,-1.1854,-1.1862,-1.1851,-1.1833,-1.188,-1.1852,-1.1877,-1.1877,-1.1887,-1.1886,-1.1965,-1.1892,-1.1892,-1.1892,-1.1892,0,-1.1829,-1.1851,-1.1835,-1.1849,-1.1873,-1.1858,-1.1883,-1.188,-1.1881,-1.1895,-1.1876,-1.189,-1.1875,-1.1887,-1.1879,-1.1903,-1.1906,-1.1903,-1.19,-1.1904,-1.1905,-1.1907,-1.1903,-1.1894,-1.1894,-1.1893,-1.1893,0,-1.1888,-1.1878,-1.1902,-1.1898,-1.1897,-1.1915,-1.1912,-1.1926,-1.192,-1.1938,-1.1941,-1.1933,-1.1947,-1.1937,-1.1951,-1.1946,-1.1977,-1.197,-1.1977,-1.1974,-1.2,-1.1997,-1.2082,-1.2093,-1.2014,-1.2015,-1.2015,0,-1.1923,-1.1939,-1.1938,-1.1945,-1.1946,-1.1959,-1.1965,-1.1952,-1.196,-1.1965,-1.1978,-1.199,-1.1999,-1.2023,-1.2018,-1.203,-1.2022,-1.2052,-1.2024,-1.2028,-1.2023,-1.2022,-1.2023,-1.2057,-1.2058,-1.2058,-1.2059,0,-1.1987,-1.1982,-1.1992,-1.2001,-1.2009,-1.2015,-1.202,-1.2028,-1.2015,-1.2025,-1.2039,-1.2046,-1.2061,-1.2074,-1.2084,-1.2084,-1.207,-1.2068,-1.2074,-1.2078,-1.2081,-1.2079,-1.1991,-1.2066,-1.2065,-1.2065,-1.2064,-1.2064,-1.2035,-1.2048,-1.205,-1.2062,-1.2064,-1.207,-1.2083,-1.2079,-1.2091,-1.2101,-1.2094,-1.2111,-1.2114,-1.2126,-1.2128,-1.2142,-1.2131,-1.214,-1.2142,-1.2144,-1.2148,-1.2079,-1.2144,-1.2144,-1.2144,-1.2144,-1.2143,0,-1.2097,-1.2097,-1.2109,-1.2117,-1.2127,-1.2113,-1.2118,-1.2128,-1.2143,-1.2147,-1.2157,-1.2174,-1.2187,-1.2185,-1.2197,-1.2209,-1.2203,-1.2212,-1.2211,-1.2211,-1.2157,-1.2151,-1.2217,-1.2217,-1.2217,-1.2217,-1.2217,-1.2217,-1.2131,-1.2153,-1.2149,-1.2174,-1.2174,-1.2191,-1.2195,-1.2201,-1.2204,-1.2224,-1.2235,-1.2233,-1.2235,-1.2248,-1.226,-1.2259,-1.2264,-1.2277,-1.2273,-1.2222,-1.2215,-1.2208,-1.2202,-1.2278,-1.2278,-1.2326,-1.2327,-1.2327]},{"header":{"parameterUnit":"m.s-1","parameterCategory":1,"la1":30.2991,"la2":30.254,"lo1":-89.0895,"lo2":-89.0444,"dy":0.0017,"dx":0.0017,"nx":28,"ny":28,"refTime":"2025-12-14T03:00:00:Z","depth":0,"parameterNumber":3,"parameterNumberName":"V-component_of_WINDS"},"data":[0,0,0,0,0,0,0,0,0,0,0,0,0,0,0,0,0,0,0,0,0,0,0,0,0,0,0,0,0,0,0,0,0,0,0,0,0,0,0,0,0,0,0,0,0,0,0,0,0,0,0,0,0,0,0,0,0,0,1.5738,1.5738,0,1.575,1.575,1.575,1.5828,1.583,1.5832,1.5833,1.5842,1.584,1.5839,0,0,0,0,0,0,0,0,0,0,0,0,0,1.578,1.5778,1.5738,1.5738,1.5738,1.575,1.575,1.575,1.5827,1.583,1.5832,1.5834,1.5842,1.584,1.5839,0,0,0,0,0,0,0,0,0,0,0,0,0,1.5773,1.5778,1.5738,1.5778,1.5782,1.575,1.575,1.575,1.5827,1.583,1.5833,1.5835,1.5843,1.5841,1.5838,1.5767,0,0,1.5831,1.583,0,0,0,0,0,0,0,0,1.5774,1.5772,1.5772,1.5775,1.578,1.579,1.5768,1.5756,1.5826,1.581,1.5833,1.5837,1.5822,1.5822,1.5818,1.5768,1.5768,1.5831,1.583,1.5829,1.5828,0,0,0,0,0,0,0,1.5774,1.5772,1.5743,1.5772,1.5777,1.5795,1.5797,1.5766,1.58,1.5811,1.5817,1.5818,1.5825,1.582,1.5818,1.5768,1.5831,1.5829,1.5828,1.5827,1.5663,1.566,0,0,0,0,0,0,1.5769,1.5771,1.5742,1.5743,1.5784,1.5792,1.5795,1.5784,1.58,1.5806,1.5815,1.5821,1.5822,1.5821,1.5819,1.5738,1.5829,1.5827,1.5825,1.5666,1.5662,1.5659,0,0,0,0,0,0,1.577,1.5766,1.5742,1.5759,1.5757,1.5788,1.5776,1.5783,1.5778,1.5803,1.5809,1.5804,1.5824,1.5822,1.578,1.574,1.5826,1.5823,1.5669,1.5665,1.566,1.5575,0,0,0,0,0,0,1.5771,1.5766,1.5739,1.5758,1.5756,1.5703,1.5773,1.5781,1.5774,1.5782,1.5794,1.5799,1.5826,1.5783,1.5778,1.5738,1.5822,1.5673,1.5667,1.5662,1.5582,1.5568,1.5557,0,0,0,0,0,1.5772,1.5713,1.5737,1.5734,1.5724,1.5701,1.57,1.5733,1.577,1.5744,1.5761,1.5799,1.5745,1.5778,1.5773,1.5732,1.5676,1.5669,1.5662,1.5587,1.5571,1.5557,0,0,0,0,0,0,1.5687,1.5717,1.5743,1.569,1.5692,1.5714,1.5682,1.5715,1.5706,1.5714,1.5755,1.5757,1.5709,1.5716,1.5753,1.5665,1.5717,1.5709,1.5662,1.5646,1.5634,1.5633,1.582,0,0,0,0,0,1.5663,1.5643,1.5669,1.5619,1.5619,1.565,1.5641,1.5667,1.5671,1.5672,1.5686,1.5687,1.5671,1.5659,1.5645,1.5583,1.5587,1.5552,1.554,1.5529,1.5522,1.5491,1.5476,1.5637,1.5637,1.5637,0,0,1.5611,1.5625,1.5609,1.5602,1.5607,1.5585,1.565,1.5623,1.5607,1.5668,1.563,1.5639,1.5644,1.5592,1.557,1.5597,1.5478,1.5521,1.5512,1.551,1.5482,1.5467,1.5453,1.5632,1.5633,1.5634,0,0,1.5506,1.5514,1.5474,1.5479,1.5487,1.5508,1.5498,1.5515,1.5525,1.5488,1.5533,1.5514,1.5484,1.5486,1.5483,1.5381,1.5416,1.5375,1.531,1.5279,1.5266,1.5255,1.5219,1.5206,1.5368,1.5367,1.5367,0,1.5441,1.541,1.5449,1.542,1.5416,1.5472,1.5431,1.5433,1.5435,1.5431,1.5461,1.5427,1.5434,1.5384,1.5359,1.5354,1.5345,1.5374,1.5265,1.5255,1.5245,1.5211,1.5197,1.5362,1.5363,1.5363,1.5364,0,1.5329,1.5307,1.5274,1.5277,1.5269,1.5234,1.5268,1.5255,1.5282,1.53,1.5262,1.5272,1.5262,1.5252,1.5277,1.5206,1.5223,1.5258,1.5312,1.5224,1.5193,1.518,1.5355,1.5357,1.5359,1.536,0,0,1.517,1.5197,1.5184,1.5187,1.52,1.5184,1.5152,1.5144,1.5132,1.5132,1.5106,1.5081,1.5115,1.5112,1.5138,1.5111,1.503,1.515,1.5151,1.5128,1.4953,1.4926,1.491,1.5054,1.5051,1.5049,1.4953,0,1.507,1.5018,1.5053,1.4995,1.4976,1.503,1.5002,1.5007,1.5023,1.5008,1.5026,1.5008,1.5054,1.5052,1.5028,1.5045,1.4995,1.5052,1.503,1.5028,1.5027,1.4894,1.4865,1.4774,1.4941,1.4939,1.4937,0,1.4946,1.4943,1.4883,1.4903,1.4896,1.487,1.4867,1.4852,1.4859,1.4873,1.487,1.4903,1.4873,1.4926,1.4885,1.4923,1.4916,1.4923,1.492,1.4919,1.4977,1.489,1.4745,1.4731,1.4918,1.492,1.4921,0,1.4836,1.4817,1.478,1.478,1.4801,1.4783,1.479,1.48,1.4794,1.479,1.4787,1.4779,1.4774,1.4767,1.4798,1.4833,1.4753,1.4808,1.4763,1.4762,1.4743,1.4744,1.4595,1.4738,1.4738,1.4739,1.4739,0,1.4721,1.4683,1.4731,1.4708,1.4667,1.4708,1.4666,1.4679,1.4688,1.4668,1.4713,1.4693,1.4735,1.4719,1.4742,1.4705,1.4702,1.4713,1.4719,1.4709,1.4707,1.4704,1.4712,1.4735,1.4736,1.4736,1.4737,0,1.4592,1.4623,1.4586,1.461,1.4615,1.4584,1.4604,1.4583,1.4603,1.4578,1.4574,1.4605,1.4589,1.4619,1.4606,1.4622,1.457,1.4587,1.4568,1.4573,1.4527,1.4531,1.4371,1.4353,1.4507,1.4505,1.4504,0,1.4516,1.4488,1.451,1.4501,1.4507,1.4491,1.4485,1.4525,1.4516,1.4524,1.4502,1.449,1.4483,1.4455,1.4475,1.4466,1.4483,1.4428,1.4482,1.4472,1.4483,1.4484,1.4482,1.4416,1.4414,1.4413,1.4412,0,1.4379,1.4396,1.4387,1.4383,1.4376,1.4374,1.4376,1.4365,1.4407,1.4396,1.4381,1.4375,1.4364,1.4351,1.4347,1.4355,1.439,1.4395,1.4384,1.4373,1.4364,1.4369,1.4538,1.4398,1.4399,1.44,1.4401,1.4402,1.4274,1.4253,1.4266,1.4254,1.426,1.4261,1.4243,1.4262,1.4251,1.4246,1.4269,1.4249,1.4258,1.4257,1.4261,1.4245,1.427,1.4254,1.425,1.4246,1.4239,1.4366,1.4245,1.4245,1.4245,1.4246,1.4246,0,1.414,1.4151,1.4141,1.4143,1.4134,1.417,1.4174,1.4163,1.4146,1.4152,1.4145,1.4128,1.4117,1.4137,1.4129,1.4113,1.4129,1.411,1.4111,1.4112,1.4217,1.4227,1.4097,1.4097,1.4097,1.4097,1.4097,1.4097,1.4069,1.4035,1.4054,1.4023,1.4035,1.4017,1.4016,1.4017,1.4023,1.4003,1.3994,1.4009,1.4021,1.4014,1.4005,1.4012,1.4007,1.3982,1.3993,1.409,1.4105,1.4119,1.4129,1.398,1.398,1.3891,1.389,1.3889]}]]